Regional Weather Roundup
Issued by NWS

Home | Current Version | Previous Version | Text Only | Print | Product List | Glossary Off
Versions: 1 2 3 4 5 6 7 8 9 10 11 12 13 14 15 16 17 18 19 20 21 22 23 24 25 26 27 28

000
ASUS45 KBOI 250210
RWRID
WEATHER ROUNDUP FOR IDAHO
NATIONAL WEATHER SERVICE BOISE ID
800 PM MDT FRI OCT 24 2014

NOTE: "FAIR" INDICATES FEW OR NO CLOUDS BELOW 12000 FEET
WITH NO SIGNIFICANT WEATHER AND/OR OBSTRUCTIONS TO VISIBILITY

IDZ012-014-250300-
SOUTHWEST IDAHO


CITY           SKY/WX    TMP DP  RH WIND       PRES   REMARKS
BOISE          CLEAR     57  50  77 NW3       29.97S
CALDWELL       CLEAR     54  45  71 NW5       29.99S
MOUNTAIN HOME  CLEAR     59  52  76 N7        29.97R
$$

IDZ016-017-250300-
SOUTHCENTRAL IDAHO


CITY           SKY/WX    TMP DP  RH WIND       PRES   REMARKS
BURLEY         CLEAR     59  33  37 CALM      30.01S
JEROME         CLEAR     60  27  28 NE14      30.01S
TWIN FALLS     CLEAR     51  34  52 SE7       30.02R
$$

IDZ019>023-250300-
SOUTHEAST IDAHO


CITY           SKY/WX    TMP DP  RH WIND       PRES   REMARKS
IDAHO FALLS    CLEAR     57  33  40 SE7       30.10R
POCATELLO      CLEAR     64  25  22 S14       30.06S
REXBURG        CLEAR     55  29  36 S6        30.10R
$$

IDZ006-010-011-018-031-032-250300-
CENTRAL IDAHO MOUNTAINS


CITY           SKY/WX    TMP DP  RH WIND       PRES   REMARKS
MCCALL         CLEAR     43  41  93 NE3       30.02F
STANLEY          N/A     43  31  62 NW3       30.13R
SALMON         PTCLDY    43  39  87 SE6       30.07S
CHALLIS        CLEAR     47  39  74 CALM      30.07R
$$

IDZ002-004-006-007-026-250300-
NORTHERN IDAHO


CITY           SKY/WX    TMP DP  RH WIND       PRES   REMARKS
LEWISTON       CLOUDY    54  50  86 E3        29.98F
LOWELL           N/A     51  50  96 CALM      30.04F
COEUR D`ALENE  CLOUDY    48  41  76 N9        30.01F
MULLAN PASS    LGT RAIN  36  35  96 SE10      30.06F WCI  28
$$



USA.gov is the U.S. government's official web portal to all federal, state and local government web resources and services.